Location: Catacaguana
(10.4120°N, 66.7591°W)
Time: 05:25:51
(UTC+00:00)

Cosmos 1072 Rocket - Pass Details

Date: 27 May 2022
Orbit: 949 x 1008 km, 82.9° (Epoch: 26 June)

Event Time Altitude Azimuth Distance (km) Brightness Sun altitude
Exits shadow 00:26:38 51° 115° (ESE) 1,185 4.5 -23.7°
Maximum altitude 00:27:17 53° 92° (E) 1,153 4.5 -23.8°
Drops below altitude 10° 00:33:10 10° 17° (NNE) 2,665 6.9 -25.1°
Sets 00:35:42 0° 13° (NNE) 3,610 7.7 -25.6°
